This demonstration page uses our WeatherBlox Daily Observations layout. Learn more.

Left ArrowRight Arrow

Hourly Observations for April 26, 2015

Temp ( °F °C ) Dew Point ( °F °C ) Humidity (%) Winds ( mph kmh ) Pressure ( in mb ) Visibility ( mi km ) Precip ( " mm )
12:24 am 00:24 Cloudy 46 7.8 41 5 83 83 NE 12 19 29.74 1007 10 16.0934 0 0
12:53 am 00:53 Cloudy 46 7.8 41 5 83 83 NE 9 15 29.72 1006 10 16.0934 0 0
1:53 am 01:53 Cloudy 46 7.8 39 3.9 77 77 NNE 9 15 29.74 1007 10 16.0934 0 0
2:53 am 02:53 Cloudy 45 7.2 36 2.2 71 71 NNE 9 15 29.74 1007 10 16.0934 0 0
3:53 am 03:53 Cloudy 43 6.1 31 -0.6 63 63 NNE 10 17 29.74 1007 10 16.0934 0 0
4:53 am 04:53 Cloudy 43 6.1 32 0 65 65 N 7 11 29.77 1008 10 16.0934 0 0
5:53 am 05:53 Cloudy 43 6.1 32 0 65 65 N 9 15 29.78 1008 10 16.0934 0 0
6:53 am 06:53 Cloudy 43 6.1 32 0 65 65 NNE 12 19 29.8 1009 10 16.0934 0 0
7:53 am 07:53 Partly Cloudy 43 6.1 33 0.6 68 68 NNE 14 22 29.82 1010 10 16.0934 0 0
8:53 am 08:53 Sunny 45 7.2 34 1.1 66 66 NE 16 26 29.83 1010 10 16.0934 0 0
9:53 am 09:53 Sunny 48 8.9 35 1.7 61 61 NNE 10 17 29.86 1011 10 16.0934 0 0
10:53 am 10:53 Sunny 51 10.6 35 1.7 54 54 N 12 19 29.87 1011 10 16.0934 0 0
11:53 am 11:53 Sunny 53 11.7 36 2.2 52 52 N 12 19 29.87 1012 10 16.0934 0 0
12:53 pm 12:53 Sunny 56 13.3 36 2.2 47 47 N 7 11 29.88 1012 10 16.0934 0 0
1:53 pm 13:53 Sunny 58 14.4 37 2.8 46 46 N 8 13 29.87 1012 10 16.0934 0 0
2:53 pm 14:53 Sunny 59 15 36 2.2 42 42 NE 13 20 29.87 1012 10 16.0934 0 0
3:53 pm 15:53 Sunny 60 15.6 38 3.3 44 44 NNW 14 22 29.87 1011 10 16.0934 0 0
4:53 pm 16:53 Sunny 60 15.6 38 3.3 44 44 NNW 14 22 29.86 1011 10 16.0934 0 0
5:53 pm 17:53 Mostly Sunny 59 15 36 2.2 42 42 N 13 20 29.87 1011 10 16.0934 0 0
6:53 pm 18:53 Mostly Cloudy 58 14.4 36 2.2 44 44 VRB 7 11 29.88 1012 10 16.0934 0 0
7:53 pm 19:53 Mostly Sunny 55 12.8 35 1.7 47 47 N 6 9 29.89 1012 10 16.0934 0 0
8:53 pm 20:53 Partly Cloudy 52 11.1 34 1.1 50 50 N 5 7 29.9 1013 10 16.0934 0 0
9:53 pm 21:53 Clear 44 6.7 37 2.8 76 76 N 3 6 29.92 1013 10 16.0934 0 0
10:53 pm 22:53 Clear 43 6.1 39 3.9 86 86 Calm 29.92 1013 10 16.0934 0 0
11:53 pm 23:53 Clear 40 4.4 36 2.2 86 86 WNW 3 6 29.93 1014 10 16.0934 0 0

Powered by AerisWeather